TimeEST,TemperatureF,Dew PointF,Humidity,Sea Level PressureIn,VisibilityMPH,Wind Direction,Wind SpeedMPH,Gust SpeedMPH,PrecipitationIn,Events,Conditions,WindDirDegrees,DateUTC
12:52 AM,26.1,14.0,60,30.35,10.0,Calm,Calm,-,N/A,,Overcast,0,2014-01-02 05:52:00
1:52 AM,28.0,12.9,53,30.33,10.0,Calm,Calm,-,N/A,,Overcast,0,2014-01-02 06:52:00
2:52 AM,27.0,19.0,72,30.34,3.0,NE,3.5,-,0.00,Snow,Light Snow,50,2014-01-02 07:52:00
3:02 AM,27.0,21.0,78,30.33,1.8,ENE,3.5,-,0.00,Snow,Light Snow,70,2014-01-02 08:02:00
3:31 AM,27.0,23.0,85,30.31,2.0,NE,4.6,-,0.01,Snow,Light Snow,50,2014-01-02 08:31:00
3:38 AM,27.0,24.1,89,30.30,2.0,NE,4.6,-,0.01,Snow,Light Snow,40,2014-01-02 08:38:00
3:50 AM,26.6,24.8,93,30.29,5.0,ENE,6.9,-,0.01,Snow,Light Snow,60,2014-01-02 08:50:00
3:52 AM,27.0,24.1,89,30.30,6.0,ENE,5.8,-,0.01,Snow,Light Snow,60,2014-01-02 08:52:00
4:28 AM,28.0,23.0,81,30.29,10.0,NE,9.2,-,0.00,,Overcast,50,2014-01-02 09:28:00
4:52 AM,28.0,23.0,81,30.29,8.0,NE,8.1,-,0.00,,Overcast,50,2014-01-02 09:52:00
5:06 AM,28.0,24.1,85,30.28,4.0,NE,8.1,-,0.00,,Overcast,40,2014-01-02 10:06:00
5:15 AM,28.0,24.1,85,30.28,5.0,NE,6.9,-,0.00,Rain,Light Freezing Rain,50,2014-01-02 10:15:00
5:24 AM,28.0,24.1,85,30.28,5.0,NE,10.4,-,0.00,,Overcast,50,2014-01-02 10:24:00
5:52 AM,28.0,24.1,85,30.28,4.0,ENE,11.5,18.4,0.00,Snow,Light Snow,60,2014-01-02 10:52:00
6:05 AM,28.0,24.1,85,30.26,4.0,NE,11.5,-,0.01,Snow,Light Snow,50,2014-01-02 11:05:00
6:52 AM,28.9,24.1,82,30.25,7.0,NE,12.7,-,0.01,Snow,Light Snow,50,2014-01-02 11:52:00
7:52 AM,30.0,24.1,79,30.24,2.5,ENE,12.7,-,0.00,Snow,Light Snow,70,2014-01-02 12:52:00
8:19 AM,30.0,26.1,85,30.22,3.0,ENE,11.5,-,0.00,Snow,Light Snow,70,2014-01-02 13:19:00
8:29 AM,30.9,25.0,79,30.21,2.5,ENE,15.0,21.9,0.00,Snow,Light Snow,70,2014-01-02 13:29:00
8:50 AM,30.2,26.6,86,30.21,3.0,ENE,12.7,-,0.00,Snow,Light Snow,70,2014-01-02 13:50:00
8:52 AM,30.9,26.1,82,30.22,3.0,ENE,15.0,-,0.00,Snow,Light Snow,70,2014-01-02 13:52:00
8:57 AM,30.9,26.1,82,30.21,1.8,ENE,13.8,-,0.00,Snow,Light Snow,70,2014-01-02 13:57:00
9:14 AM,30.9,27.0,85,30.21,1.0,ENE,13.8,-,0.01,Snow,Light Snow,70,2014-01-02 14:14:00
9:21 AM,30.9,27.0,85,30.20,1.0,ENE,17.3,23.0,0.01,Snow,Light Snow,70,2014-01-02 14:21:00
9:28 AM,30.9,27.0,85,30.20,1.2,ENE,13.8,23.0,0.01,Snow,Light Snow,70,2014-01-02 14:28:00
9:32 AM,30.9,28.0,89,30.19,1.2,East,15.0,-,0.01,Snow,Light Snow,80,2014-01-02 14:32:00
9:52 AM,30.9,28.0,89,30.19,1.5,ENE,16.1,21.9,0.01,Snow,Light Snow,70,2014-01-02 14:52:00
10:15 AM,32.0,28.0,85,30.17,1.5,ENE,12.7,23.0,0.00,Snow,Light Snow,70,2014-01-02 15:15:00
10:32 AM,32.0,28.0,85,30.15,0.5,ENE,16.1,24.2,0.00,Fog-Snow,Snow,70,2014-01-02 15:32:00
10:52 AM,32.0,28.9,88,30.13,0.8,ENE,16.1,23.0,0.00,Snow,Light Snow,70,2014-01-02 15:52:00
11:42 AM,32.0,28.9,88,30.08,1.0,ENE,15.0,24.2,0.00,Snow,Light Snow,60,2014-01-02 16:42:00
11:52 AM,32.0,28.0,85,30.08,1.8,ENE,13.8,24.2,0.00,Snow,Light Snow,70,2014-01-02 16:52:00
12:03 PM,32.0,28.9,88,30.05,2.0,ENE,13.8,25.3,0.00,Snow,Light Snow,70,2014-01-02 17:03:00
12:09 PM,33.1,28.0,82,30.05,4.0,East,11.5,24.2,0.00,,Haze,80,2014-01-02 17:09:00
12:12 PM,32.0,28.9,88,30.05,2.0,East,15.0,24.2,0.00,Snow,Light Snow,80,2014-01-02 17:12:00
12:14 PM,32.0,28.9,88,30.05,1.2,East,16.1,-,0.00,Snow,Light Snow,80,2014-01-02 17:14:00
12:17 PM,33.1,30.0,89,30.04,0.8,ENE,13.8,-,0.00,Snow,Light Snow,70,2014-01-02 17:17:00
12:52 PM,32.0,30.0,92,30.03,0.5,ENE,17.3,32.2,0.00,Fog-Snow,Snow,70,2014-01-02 17:52:00
1:00 PM,32.0,28.9,88,30.01,0.5,ENE,17.3,33.4,0.00,Fog-Snow,Snow,70,2014-01-02 18:00:00
1:17 PM,32.0,28.9,88,30.00,0.5,ENE,23.0,32.2,0.00,Fog-Snow,Snow,70,2014-01-02 18:17:00
1:52 PM,30.9,28.0,89,29.99,0.5,ENE,23.0,36.8,0.01,Fog-Snow,Snow,60,2014-01-02 18:52:00
2:13 PM,30.9,28.0,89,29.97,0.5,ENE,24.2,36.8,0.00,Fog-Snow,Light Snow,60,2014-01-02 19:13:00
2:48 PM,30.2,26.6,86,29.97,0.5,ENE,24.2,36.8,0.01,Fog-Snow,Light Snow,60,2014-01-02 19:48:00
2:52 PM,30.0,28.0,92,29.98,0.5,ENE,25.3,36.8,0.01,Fog-Snow,Light Snow,60,2014-01-02 19:52:00
3:07 PM,30.0,27.0,88,29.97,0.8,ENE,24.2,35.7,0.00,Snow,Light Snow,60,2014-01-02 20:07:00
3:52 PM,30.0,27.0,88,29.94,0.8,ENE,25.3,35.7,0.01,Snow,Light Snow,60,2014-01-02 20:52:00
3:59 PM,30.0,27.0,88,29.91,0.5,ENE,28.8,39.1,0.00,Fog-Snow,Light Snow,60,2014-01-02 20:59:00
4:12 PM,28.9,26.1,89,29.90,0.5,ENE,27.6,36.8,0.00,Fog-Snow,Light Snow,60,2014-01-02 21:12:00
4:22 PM,28.9,26.1,89,29.90,0.8,ENE,24.2,35.7,0.00,Snow,Light Snow,60,2014-01-02 21:22:00
4:24 PM,28.9,26.1,89,29.90,1.0,ENE,27.6,35.7,0.00,Snow,Light Snow,60,2014-01-02 21:24:00
4:31 PM,28.9,26.1,89,29.91,1.0,ENE,21.9,36.8,0.00,Snow,Light Snow,60,2014-01-02 21:31:00
4:40 PM,28.9,26.1,89,29.91,1.2,ENE,27.6,38.0,0.00,Snow,Light Snow,60,2014-01-02 21:40:00
4:52 PM,28.9,26.1,89,29.92,1.2,ENE,28.8,36.8,0.00,Snow,Light Snow,60,2014-01-02 21:52:00
5:26 PM,28.9,25.0,85,29.89,1.0,ENE,26.5,40.3,0.01,Snow,Light Snow,60,2014-01-02 22:26:00
5:33 PM,28.9,25.0,85,29.88,1.2,ENE,27.6,39.1,0.01,Snow,Light Snow,60,2014-01-02 22:33:00
5:40 PM,28.9,26.1,89,29.87,1.2,ENE,27.6,39.1,0.01,Snow,Light Snow,60,2014-01-02 22:40:00
5:48 PM,28.4,26.6,93,29.87,1.0,NE,23.0,40.3,0.01,Snow,Light Snow,50,2014-01-02 22:48:00
5:52 PM,28.9,26.1,89,29.87,1.0,ENE,27.6,38.0,0.01,Snow,Light Snow,60,2014-01-02 22:52:00
6:03 PM,28.9,26.1,89,29.87,0.8,ENE,31.1,40.3,0.00,Snow,Light Snow,60,2014-01-02 23:03:00
6:06 PM,28.9,26.1,89,29.87,1.0,ENE,24.2,40.3,0.00,Snow,Light Snow,60,2014-01-02 23:06:00
6:29 PM,28.9,26.1,89,29.86,1.2,NE,24.2,36.8,0.00,,Overcast,50,2014-01-02 23:29:00
6:33 PM,28.9,25.0,85,29.86,1.0,NE,25.3,38.0,0.00,,Overcast,50,2014-01-02 23:33:00
6:40 PM,28.9,25.0,85,29.86,1.2,NE,17.3,36.8,0.00,,Overcast,50,2014-01-02 23:40:00
6:52 PM,28.9,25.0,85,29.88,1.0,NE,19.6,36.8,0.00,Snow,Light Snow,50,2014-01-02 23:52:00
7:05 PM,28.9,25.0,85,29.88,1.0,NE,21.9,33.4,0.00,Snow,Light Snow,50,2014-01-03 00:05:00
7:13 PM,28.9,25.0,85,29.87,0.8,NE,25.3,33.4,0.01,Snow,Light Snow,50,2014-01-03 00:13:00
7:25 PM,28.9,25.0,85,29.85,0.8,NE,20.7,33.4,0.02,Snow,Light Snow,50,2014-01-03 00:25:00
7:35 PM,28.0,26.1,92,29.85,0.8,NE,26.5,36.8,0.02,Snow,Light Snow,50,2014-01-03 00:35:00
7:43 PM,28.0,25.0,88,29.85,1.0,ENE,23.0,39.1,0.02,Snow,Light Snow,60,2014-01-03 00:43:00
7:52 PM,28.0,25.0,88,29.85,1.2,NE,24.2,36.8,0.03,Snow,Light Snow,50,2014-01-03 00:52:00
8:52 PM,28.0,24.1,85,29.82,1.5,NE,24.2,34.5,0.00,Snow,Light Snow,50,2014-01-03 01:52:00
9:03 PM,28.9,24.1,82,29.80,2.5,NE,20.7,41.4,0.00,Snow,Light Snow,50,2014-01-03 02:03:00
9:13 PM,28.9,24.1,82,29.79,1.2,NE,27.6,36.8,0.00,Snow,Light Snow,50,2014-01-03 02:13:00
9:38 PM,28.0,25.0,88,29.75,0.8,NE,25.3,36.8,0.01,Snow,Light Snow,50,2014-01-03 02:38:00
9:43 PM,28.0,25.0,88,29.74,1.0,NE,26.5,43.7,0.01,Snow,Light Snow,50,2014-01-03 02:43:00
9:45 PM,28.0,25.0,88,29.74,1.0,NE,23.0,43.7,0.01,Snow,Light Snow,50,2014-01-03 02:45:00
9:52 PM,28.0,24.1,85,29.75,1.2,NE,28.8,43.7,0.01,Snow,Light Snow,50,2014-01-03 02:52:00
10:08 PM,28.0,25.0,88,29.71,1.0,NE,28.8,40.3,0.00,Snow,Light Snow,50,2014-01-03 03:08:00
10:20 PM,28.0,25.0,88,29.71,0.8,NE,25.3,40.3,0.00,Snow,Light Snow,50,2014-01-03 03:20:00
10:52 PM,28.0,24.1,85,29.70,0.5,NE,24.2,41.4,0.01,Fog-Snow,Snow,50,2014-01-03 03:52:00
11:22 PM,27.0,23.0,85,29.68,0.5,NE,25.3,40.3,0.00,Fog-Snow,Snow,50,2014-01-03 04:22:00
11:37 PM,28.0,24.1,85,29.66,0.5,NE,27.6,46.0,0.01,Fog-Snow,Snow,50,2014-01-03 04:37:00
11:52 PM,27.0,24.1,89,29.66,0.5,NE,25.3,39.1,0.02,Fog-Snow,Snow,50,2014-01-03 04:52:00